Change the Weather History Date:

Monday, October 1, 2012

  Actual Average Record
Temperature  
Mean Temperature 84 °F -  
Max Temperature 94 °F 86 °F 94 °F (2012)
Min Temperature 74 °F 73 °F 69 °F (2014)
Cooling Degree Days 19    
Growing Degree Days 34 (Base 50)    
Moisture  
Dew Point 76 °F    
Average Humidity 68    
Maximum Humidity 84    
Minimum Humidity 44    
Precipitation  
Precipitation 0.00 in - - ()
Sea Level Pressure  
Sea Level Pressure 29.95 in    
Wind  
Wind Speed 6 mph ()    
Max Wind Speed 18 mph    
Max Gust Speed -    
Visibility 7.4 miles    
Events      
Averages and records for this station are not official NWS values.
T = Trace of Precipitation, MM = Missing Value Source: Averaged Metar Reports

Daily Weather History Graph

Daily Weather History Graph

Search for Another Location

Airport or City:

Trip Planner

Search our weather history database for the weather conditions in past years. The results will help you decide how hot, cold, wet, or windy it might be!

Date:

Astronomy

Oct. 01, 2012 Rise Set
Actual Time 6:33 AM AST 6:29 PM AST
Civil Twilight 6:11 AM AST 6:51 PM AST
Nautical Twilight 5:45 AM AST 7:17 PM AST
Astronomical Twilight 5:20 AM AST 7:42 PM AST
Moon 7:26 PM AST (10/1) 7:41 AM AST (10/1)
Length of Visible Light 12h 40m
Length of Day
11h 56m
Full, 98% of the Moon is Illuminated
Oct 1
Full
Oct 8
Last Quarter
Oct 15
New
Oct 21
First Quarter
Oct 29
Full

Hourly Weather History & Observations

Time (AST) Temp. Heat Index Dew Point Humidity Pressure Visibility Wind Dir Wind Speed Gust Speed Precip Events Conditions
2:00 AM 81 °F - 74 °F 75% 29.96 in 10 mi Calm Calm - -   Scattered Clouds
2:00 AM 80.6 °F 86.2 °F 75.2 °F 84% - 6.2 mi Calm Calm - N/A   Partly Cloudy
5:00 AM 79 °F - 74 °F 80% 29.94 in 10 mi Calm Calm - -   Scattered Clouds
5:00 AM 78.8 °F - 73.4 °F 83% 29.92 in 6.2 mi Calm Calm - N/A   Partly Cloudy
8:00 AM 82 °F - 75 °F 75% 29.96 in 10 mi Calm Calm - -   Scattered Clouds
8:00 AM 82.4 °F 89.5 °F 75.2 °F 79% 29.95 in 6.2 mi Calm Calm - N/A   Partly Cloudy
9:00 AM 87.8 °F 99.7 °F 77.0 °F 70% 29.98 in 6.2 mi ESE 9.2 mph - N/A   Partly Cloudy
10:00 AM 89.6 °F 99.8 °F 75.2 °F 62% 29.98 in 6.2 mi ESE 11.5 mph - N/A   Partly Cloudy
11:00 AM 93 °F - 74 °F 44% 29.99 in 10 mi South 6.7 mph - -   Scattered Clouds
11:00 AM 93.2 °F 102.4 °F 73.4 °F 52% 29.98 in 6.2 mi ENE 8.1 mph - N/A   Scattered Clouds
12:00 PM 95.0 °F 104.5 °F 73.4 °F 49% 29.98 in 6.2 mi ESE 9.2 mph - N/A   Mostly Cloudy
1:00 PM 93.2 °F 107.2 °F 77.0 °F 59% 29.95 in 6.2 mi East 11.5 mph - N/A   Partly Cloudy
2:00 PM 93 °F - 79 °F 56% 29.95 in 10 mi East 17.9 mph - -   Scattered Clouds
2:00 PM 93.2 °F 110.2 °F 78.8 °F 63% 29.95 in 6.2 mi East 17.3 mph - N/A   Partly Cloudy
3:00 PM 93.2 °F 110.2 °F 78.8 °F 63% 29.92 in 6.2 mi East 17.3 mph - N/A   Scattered Clouds
4:00 PM 91.4 °F 107.2 °F 78.8 °F 66% 29.92 in 6.2 mi East 13.8 mph - N/A   Scattered Clouds
5:00 PM 90 °F - 78 °F 60% 29.93 in 10 mi East 13.4 mph - -   Scattered Clouds
5:00 PM 89.6 °F 104.7 °F 78.8 °F 70% 29.92 in 6.2 mi East 13.8 mph - N/A   Partly Cloudy
6:00 PM 86.0 °F 96.9 °F 77.0 °F 74% 29.92 in 6.2 mi East 11.5 mph - N/A   Partly Cloudy
7:00 PM 84.2 °F 94.1 °F 77.0 °F 79% 29.95 in 6.2 mi East 11.5 mph - N/A   Scattered Clouds
8:00 PM 84 °F - 76 °F 70% 29.98 in 10 mi East 11.2 mph - -   Partly Cloudy
8:00 PM 84.2 °F 92.3 °F 75.2 °F 74% 29.95 in 6.2 mi East 11.5 mph - N/A   Scattered Clouds
11:00 PM 80.6 °F 85.4 °F 73.4 °F 79% 30.01 in 6.2 mi East 6.9 mph - N/A   Partly Cloudy